period_start,C,m1,H,J0,J1,J2,J3,J4,J5,JA,JB,JC,JD,JJ,JK,JN,#
2017-10-03 00:01:05,0.00,0.24,0.00,19.45,23.12,26.38,14.23,46.90,1021.53,2048.02,3406.11,3082.99,3471.91,599.93,606.14,55.26,0000 0000 0000 0000 000000
2017-10-03 00:06:07,0.01,0.24,0.00,19.47,23.12,26.39,14.18,46.73,1021.54,2048.01,3406.00,3082.95,3471.39,599.85,605.92,55.31,0000 0000 0000 0000 000000
2017-10-03 00:11:08,0.01,0.24,0.00,19.47,23.12,26.37,14.24,46.77,1021.56,2048.03,3406.00,3082.80,3471.15,600.14,606.32,55.36,0000 0000 0000 0000 000000
2017-10-03 00:16:09,0.01,0.24,0.00,19.43,23.12,26.36,14.19,46.70,1021.54,2048.06,3405.99,3082.50,3471.03,599.74,605.98,55.41,0000 0000 0000 0000 000000
2017-10-03 00:21:11,0.01,0.24,0.00,19.40,23.11,26.37,14.18,46.67,1021.53,2048.08,3405.98,3082.18,3471.02,599.58,605.86,55.46,0000 0000 0000 0000 000000
2017-10-03 00:26:12,0.00,0.24,0.00,19.39,23.11,26.39,14.17,46.52,1021.52,2048.06,3405.97,3082.03,3471.00,600.19,606.31,55.52,0000 0000 0000 0000 000000
2017-10-03 00:31:13,-0.00,0.24,0.00,19.45,23.10,26.40,14.17,46.79,1021.51,2048.01,3405.94,3082.02,3470.99,599.71,605.93,55.57,0000 0000 0000 0000 000000
2017-10-03 00:36:14,0.00,0.24,0.00,19.45,23.10,26.35,14.17,46.71,1021.50,2048.02,3405.88,3082.00,3470.97,599.72,605.89,55.62,0000 0000 0000 0000 000000
2017-10-03 00:41:16,0.00,0.24,0.00,19.44,23.10,26.34,14.21,46.67,1021.50,2048.05,3405.67,3082.00,3470.95,599.70,605.95,55.67,0000 0000 0000 0000 000000
2017-10-03 00:46:17,0.00,0.24,0.00,19.45,23.09,26.34,14.16,46.63,1021.50,2048.02,3405.46,3082.00,3470.87,599.85,606.14,55.72,0000 0000 0000 0000 000000
2017-10-03 00:51:19,0.00,0.24,0.00,19.42,23.09,26.34,14.18,46.60,1021.50,2048.02,3405.32,3082.00,3470.73,600.24,606.46,55.77,0000 0000 0000 0000 000000
2017-10-03 00:56:20,0.01,0.24,0.00,19.45,23.09,26.34,14.22,46.78,1021.50,2048.01,3405.33,3082.00,3470.64,599.45,605.67,55.82,0000 0000 0000 0000 000000
2017-10-03 01:01:22,-0.01,0.24,0.00,19.44,23.09,26.34,14.21,46.68,1021.50,2048.01,3405.35,3082.00,3470.61,599.64,605.82,55.87,0000 0000 0000 0000 000000
2017-10-03 01:06:23,-0.00,0.24,0.00,19.48,23.09,26.31,14.16,46.67,1021.50,2048.03,3405.43,3082.00,3470.71,600.13,606.19,55.92,0000 0000 0000 0000 000000
2017-10-03 01:11:24,0.01,0.24,0.00,19.44,23.09,26.36,14.21,46.90,1021.50,2048.01,3405.11,3082.00,3470.24,600.14,606.35,55.97,0000 0000 0000 0000 000000
2017-10-03 01:16:26,0.00,0.24,0.00,19.44,23.09,26.37,14.16,46.86,1021.50,2048.01,3405.01,3081.99,3470.07,600.44,606.49,56.02,0000 0000 0000 0000 000000
2017-10-03 01:21:27,0.00,0.24,0.00,19.40,23.09,26.37,14.17,46.83,1021.50,2048.02,3405.00,3081.99,3470.09,600.05,606.37,56.07,0000 0000 0000 0000 000000
2017-10-03 01:26:28,0.00,0.24,0.00,19.42,23.09,26.34,14.24,46.94,1021.50,2048.03,3405.02,3081.99,3470.08,599.81,606.03,56.12,0000 0000 0000 0000 000000
2017-10-03 01:31:29,-0.00,0.24,0.00,19.41,23.08,26.36,14.20,46.84,1021.50,2048.03,3405.01,3081.99,3470.07,599.95,606.19,56.17,0000 0000 0000 0000 000000
2017-10-03 01:36:31,0.00,0.24,0.00,19.43,23.07,26.35,14.16,46.84,1021.50,2048.03,3405.00,3081.99,3470.09,599.97,606.10,56.22,0000 0000 0000 0000 000000
2017-10-03 01:41:32,0.00,0.24,0.00,19.41,23.07,26.34,14.26,46.83,1021.50,2048.04,3405.00,3081.99,3470.06,600.34,606.59,56.27,0000 0000 0000 0000 000000
2017-10-03 01:46:33,-0.00,0.24,0.00,19.40,23.07,26.33,14.21,46.78,1021.50,2048.07,3405.00,3081.99,3470.09,600.30,606.56,56.32,0000 0000 0000 0000 000000
2017-10-03 01:51:35,0.00,0.24,0.00,19.39,23.07,26.32,14.22,46.74,1021.50,2048.10,3405.00,3081.97,3470.04,600.27,606.61,56.37,0000 0000 0000 0000 000000
2017-10-03 01:56:36,0.01,0.24,0.00,19.35,23.07,26.30,14.22,46.73,1021.50,2048.07,3404.99,3081.94,3470.00,600.27,606.64,56.42,0000 0000 0000 0000 000000
2017-10-03 02:01:37,0.00,0.24,0.00,19.39,23.05,26.29,14.23,46.83,1021.40,2048.07,3404.91,3081.73,3470.00,600.27,606.43,56.47,0000 0000 0000 0000 000000
2017-10-03 02:06:38,0.01,0.24,0.00,19.39,23.04,26.28,14.22,47.00,1021.40,2048.05,3404.71,3081.46,3470.00,599.98,606.20,56.53,0000 0000 0000 0000 000000
2017-10-03 02:11:40,0.02,0.25,0.00,19.39,23.04,26.28,14.20,46.91,1021.30,2048.08,3404.21,3081.15,3469.99,599.90,606.15,56.58,0000 0000 0000 0000 000000
2017-10-03 02:16:41,0.01,0.25,0.00,19.35,23.04,26.27,14.20,46.86,1021.10,2048.11,3404.04,3081.03,3469.97,599.89,606.13,56.63,0000 0000 0000 0000 000000
2017-10-03 02:21:42,0.01,0.25,0.00,19.36,23.04,26.25,14.17,46.77,1021.09,2048.18,3404.00,3081.01,3469.76,600.45,606.48,56.68,0000 0000 0000 0000 000000
2017-10-03 02:26:44,0.00,0.25,0.00,19.35,23.03,26.26,14.15,46.63,1021.12,2048.26,3403.99,3081.00,3469.24,599.76,605.88,56.73,0000 0000 0000 0000 000000
2017-10-03 02:31:45,0.00,0.25,0.00,19.36,23.02,26.24,14.18,46.73,1021.11,2048.17,3403.97,3081.00,3469.01,599.87,605.97,56.78,0000 0000 0000 0000 000000
2017-10-03 02:36:46,0.03,0.25,0.00,19.39,23.02,26.26,14.24,46.77,1021.14,2048.43,3403.96,3080.99,3469.01,600.28,606.44,56.83,0000 0000 0000 0000 000000
2017-10-03 02:41:48,-0.01,0.25,0.00,19.38,23.02,26.26,14.15,46.78,1021.08,2048.39,3403.81,3080.97,3469.00,600.18,606.35,56.88,0000 0000 0000 0000 000000
2017-10-03 02:46:49,0.04,0.25,0.00,19.37,23.02,26.23,14.18,46.65,1021.09,2048.65,3403.36,3080.97,3469.00,599.77,605.90,56.93,0000 0000 0000 0000 000000
2017-10-03 02:51:50,0.01,0.25,0.00,19.36,23.01,26.22,14.13,46.62,1021.24,2048.70,3403.18,3080.96,3469.00,599.74,605.88,56.98,0000 0000 0000 0000 000000
2017-10-03 02:56:51,0.01,0.25,0.00,19.37,23.00,26.24,14.17,46.66,1021.35,2048.93,3403.09,3080.96,3469.00,599.89,605.95,57.03,0000 0000 0000 0000 000000
2017-10-03 03:01:53,-0.00,0.25,0.00,19.38,23.00,26.24,14.15,46.74,1021.41,2048.90,3403.02,3080.89,3469.00,599.94,606.11,57.08,0000 0000 0000 0000 000000
2017-10-03 03:06:54,0.01,0.25,0.00,19.44,22.99,26.22,14.21,46.76,1021.28,2048.93,3403.01,3080.75,3468.99,600.55,606.61,57.13,0000 0000 0000 0000 000000
2017-10-03 03:11:55,0.01,0.25,0.00,19.42,22.99,26.23,14.23,46.75,1021.36,2048.90,3403.00,3080.45,3468.97,600.01,606.21,57.18,0000 0000 0000 0000 000000
2017-10-03 03:16:57,-0.00,0.25,0.00,19.46,22.99,26.21,14.20,46.67,1021.25,2048.94,3403.00,3080.30,3468.93,600.09,606.09,57.23,0000 0000 0000 0000 000000
2017-10-03 03:21:58,0.00,0.25,0.00,19.44,22.99,26.24,14.23,46.75,1021.20,2048.93,3403.00,3080.19,3468.92,600.43,606.47,57.28,0000 0000 0000 0000 000000
2017-10-03 03:27:00,0.00,0.25,0.00,19.45,23.00,26.25,14.16,46.68,1021.12,2048.90,3402.98,3080.05,3468.65,599.98,605.87,57.33,0000 0000 0000 0000 000000
2017-10-03 03:32:01,0.01,0.25,0.00,19.45,23.00,26.26,14.17,46.76,1021.04,2048.86,3402.95,3080.03,3468.24,599.89,605.79,57.38,0000 0000 0000 0000 000000
2017-10-03 03:37:02,-0.01,0.25,0.00,19.47,23.00,26.24,14.24,46.52,1021.04,2048.63,3402.56,3080.00,3468.04,600.33,606.17,57.44,0000 0000 0000 0000 000000
2017-10-03 03:42:04,0.01,0.25,0.00,19.50,23.00,26.24,14.16,46.52,1021.05,2048.70,3402.24,3080.00,3468.00,600.15,605.97,57.49,0000 0000 0000 0000 000000
2017-10-03 03:47:05,0.01,0.25,0.00,19.48,23.01,26.25,14.16,46.61,1021.06,2048.69,3402.14,3079.99,3468.00,599.71,605.59,57.54,0000 0000 0000 0000 000000
2017-10-03 03:52:06,-0.02,0.25,0.00,19.49,23.02,26.25,14.21,46.60,1021.03,2048.64,3402.09,3079.99,3468.00,600.37,606.07,57.59,0000 0000 0000 0000 000000
2017-10-03 03:57:08,-0.00,0.25,0.00,19.46,23.02,26.25,14.24,46.80,1021.05,2048.43,3402.03,3079.99,3468.00,600.26,606.22,57.64,0000 0000 0000 0000 000000
2017-10-03 04:02:09,0.01,0.25,0.00,19.47,23.02,26.24,14.29,46.67,1021.12,2048.56,3402.01,3079.99,3468.00,600.42,606.41,57.69,0000 0000 0000 0000 000000
2017-10-03 04:07:10,0.01,0.25,0.00,19.43,23.02,26.25,14.22,46.67,1021.19,2048.54,3402.00,3079.99,3467.98,599.77,605.78,57.74,0000 0000 0000 0000 000000
2017-10-03 04:12:11,-0.01,0.25,0.00,19.50,23.02,26.28,14.08,46.77,1021.13,2048.47,3402.00,3079.97,3467.98,599.25,605.04,57.79,0000 0000 0000 0000 000000
2017-10-03 04:17:12,-0.00,0.25,0.00,19.48,23.02,26.28,14.21,46.70,1021.11,2048.42,3401.99,3079.90,3467.88,599.96,605.89,57.84,0000 0000 0000 0000 000000
2017-10-03 04:22:14,-0.01,0.25,0.00,19.49,23.02,26.27,14.15,46.68,1021.14,2048.17,3401.97,3079.68,3467.52,600.04,605.92,57.89,0000 0000 0000 0000 000000
2017-10-03 04:27:15,0.01,0.25,0.00,19.46,23.02,26.27,14.19,46.68,1021.24,2048.27,3401.94,3079.76,3467.54,600.06,606.05,57.94,0000 0000 0000 0000 000000
2017-10-03 04:32:17,0.03,0.25,0.00,19.45,23.02,26.28,14.18,46.65,1021.28,2048.33,3401.60,3079.37,3467.18,599.95,605.89,57.99,0000 0000 0000 0000 000000
2017-10-03 04:37:18,0.00,0.25,0.00,19.46,23.02,26.30,14.21,46.63,1021.33,2048.31,3401.32,3079.19,3467.09,600.36,606.35,58.04,0000 0000 0000 0000 000000
2017-10-03 04:42:20,-0.00,0.25,0.00,19.45,23.02,26.28,14.21,46.58,1021.26,2048.23,3401.12,3079.11,3467.05,599.93,605.97,58.09,0000 0000 0000 0000 000000
2017-10-03 04:47:21,-0.01,0.25,0.00,19.49,23.02,26.30,14.23,46.62,1021.40,2048.12,3401.02,3079.02,3467.01,600.75,606.83,58.14,0000 0000 0000 0000 000000
2017-10-03 04:52:22,0.01,0.25,0.00,19.44,23.02,26.29,14.23,46.67,1021.36,2048.21,3401.00,3079.01,3467.00,600.52,606.66,58.19,0000 0000 0000 0000 000000
2017-10-03 04:57:23,-0.01,0.25,0.00,19.48,23.03,26.28,14.14,46.68,1021.27,2048.12,3401.00,3079.00,3467.00,599.98,605.83,58.24,0000 0000 0000 0000 000000
2017-10-03 05:02:24,-0.00,0.25,0.00,19.42,23.03,26.29,14.21,46.71,1021.12,2048.06,3400.98,3079.00,3466.99,599.95,605.95,58.29,0000 0000 0000 0000 000000
2017-10-03 05:07:26,0.00,0.25,0.00,19.46,23.03,26.31,14.21,46.53,1021.17,2048.07,3400.93,3079.00,3466.96,599.86,605.86,58.34,0000 0000 0000 0000 000000
2017-10-03 05:12:27,0.00,0.25,0.00,19.43,23.04,26.31,14.14,46.62,1021.17,2048.08,3400.88,3079.00,3466.97,599.86,606.03,58.40,0000 0000 0000 0000 000000
2017-10-03 05:17:28,0.01,0.25,0.00,19.50,23.04,26.27,14.20,46.69,1021.15,2048.06,3400.51,3078.98,3466.93,600.00,605.82,58.45,0000 0000 0000 0000 000000
2017-10-03 05:22:29,0.01,0.25,0.00,19.45,23.04,26.30,14.23,46.76,1021.23,2048.08,3400.15,3078.97,3466.76,600.14,606.13,58.50,0000 0000 0000 0000 000000
2017-10-03 05:27:31,0.00,0.25,0.00,19.46,23.04,26.32,14.21,46.63,1021.13,2048.05,3400.07,3078.96,3466.44,600.35,606.27,58.55,0000 0000 0000 0000 000000
2017-10-03 05:32:32,0.00,0.25,0.00,19.44,23.04,26.29,14.17,46.68,1021.09,2048.07,3400.02,3078.96,3466.29,600.04,606.07,58.60,0000 0000 0000 0000 000000
2017-10-03 05:37:33,0.00,0.25,0.00,19.42,23.04,26.31,14.22,46.82,1021.07,2048.03,3400.00,3078.82,3466.06,599.86,605.79,58.65,0000 0000 0000 0000 000000
2017-10-03 05:42:34,0.01,0.25,0.00,19.41,23.04,26.31,14.19,46.80,1021.09,2048.02,3400.00,3078.38,3466.01,600.28,606.30,58.70,0000 0000 0000 0000 000000
2017-10-03 05:47:35,-0.00,0.25,0.00,19.43,23.03,26.32,14.18,46.76,1021.06,2048.02,3400.00,3078.43,3466.01,600.12,606.16,58.75,0000 0000 0000 0000 000000
2017-10-03 05:52:36,-0.00,0.25,0.00,19.44,23.03,26.30,14.25,46.63,1021.07,2048.02,3399.99,3078.40,3466.01,600.33,606.09,58.80,0000 0000 0000 0000 000000
2017-10-03 05:57:38,0.00,0.25,0.00,19.41,23.03,26.31,14.23,46.77,1021.05,2048.01,3399.99,3078.50,3466.01,600.25,606.35,58.85,0000 0000 0000 0000 000000
2017-10-03 06:02:39,0.00,0.25,0.00,19.39,23.02,26.29,14.22,46.66,1021.11,2048.04,3399.98,3078.35,3466.01,600.06,605.99,58.90,0000 0000 0000 0000 000000
2017-10-03 06:07:40,0.00,0.25,0.00,19.39,23.02,26.31,14.18,46.82,1021.07,2048.07,3399.98,3078.31,3466.00,600.06,606.13,58.95,0000 0000 0000 0000 000000
2017-10-03 06:12:42,0.00,0.26,0.00,19.39,23.02,26.29,14.21,46.65,1021.10,2048.08,3399.98,3078.17,3466.00,600.10,606.26,59.00,0000 0000 0000 0000 000000
2017-10-03 06:17:43,0.00,0.26,0.00,19.39,23.02,26.31,14.15,46.64,1021.06,2048.07,3399.97,3078.13,3466.00,599.58,605.71,59.05,0000 0000 0000 0000 000000
2017-10-03 06:22:44,0.01,0.26,0.00,19.41,23.02,26.31,14.20,46.66,1021.11,2048.18,3399.96,3078.27,3466.01,600.24,606.25,59.10,0000 0000 0000 0000 000000
2017-10-03 06:27:45,0.01,0.26,0.00,19.38,23.02,26.27,14.25,46.72,1021.22,2048.19,3399.95,3078.13,3466.00,600.06,606.22,59.15,0000 0000 0000 0000 000000
2017-10-03 06:32:46,-0.01,0.26,0.00,19.41,23.02,26.30,14.18,46.70,1021.34,2048.20,3399.90,3078.11,3466.00,599.98,606.12,59.20,0000 0000 0000 0000 000000
2017-10-03 06:37:48,0.00,0.26,0.00,19.36,23.02,26.30,14.21,46.63,1021.46,2048.15,3399.78,3078.07,3466.00,600.11,606.46,59.25,0000 0000 0000 0000 000000
2017-10-03 06:42:49,0.01,0.26,0.00,19.40,23.02,26.32,14.17,46.72,1021.46,2048.23,3399.64,3078.06,3466.00,600.07,606.33,59.30,0000 0000 0000 0000 000000
2017-10-03 06:47:50,-0.01,0.26,0.00,19.39,23.02,26.28,14.22,46.58,1021.49,2048.15,3399.70,3078.05,3466.00,600.14,606.54,59.35,0000 0000 0000 0000 000000
2017-10-03 06:52:51,0.00,0.26,0.00,19.40,23.01,26.29,14.13,46.54,1021.49,2048.26,3399.72,3078.11,3465.99,599.84,606.24,59.40,0000 0000 0000 0000 000000
2017-10-03 06:57:52,0.00,0.26,0.00,19.43,23.01,26.29,14.18,46.48,1021.48,2048.22,3399.52,3078.05,3465.99,600.15,606.39,59.45,0000 0000 0000 0000 000000
2017-10-03 07:02:54,-0.00,0.26,0.00,19.36,23.01,26.30,14.25,46.63,1021.48,2048.16,3399.34,3078.05,3465.98,599.90,606.21,59.51,0000 0000 0000 0000 000000
2017-10-03 07:07:54,0.00,0.26,0.00,19.38,23.00,26.27,14.28,46.75,1021.48,2048.12,3399.11,3078.03,3465.99,600.08,606.32,59.56,0000 0000 0000 0000 000000
2017-10-03 07:12:56,-0.01,0.26,0.00,19.41,23.00,26.27,14.23,46.74,1021.45,2048.07,3399.05,3078.02,3465.97,599.68,605.93,59.61,0000 0000 0000 0000 000000
2017-10-03 07:17:57,0.01,0.26,0.00,19.36,23.00,26.27,14.28,46.70,1021.40,2048.09,3399.03,3078.01,3465.96,599.85,606.23,59.66,0000 0000 0000 0000 000000
2017-10-03 07:22:58,-0.00,0.26,0.00,19.43,23.00,26.25,14.23,46.66,1021.34,2048.06,3399.01,3078.00,3465.88,600.02,605.96,59.71,0000 0000 0000 0000 000000
2017-10-03 07:27:59,0.00,0.26,0.00,19.38,23.00,26.27,14.15,46.72,1021.34,2048.06,3399.00,3078.00,3465.55,599.96,606.18,59.76,0000 0000 0000 0000 000000
2017-10-03 07:33:00,0.00,0.26,0.00,19.39,23.00,26.27,14.16,46.62,1021.20,2048.06,3399.00,3078.00,3465.53,599.72,605.87,59.81,0000 0000 0000 0000 000000
2017-10-03 07:38:02,0.00,0.26,0.00,19.43,23.00,26.29,14.23,46.64,1021.07,2048.03,3399.00,3078.00,3465.21,600.52,606.45,59.86,0000 0000 0000 0000 000000
2017-10-03 07:43:03,0.00,0.26,0.00,19.43,23.00,26.28,14.19,46.60,1021.05,2048.04,3398.99,3078.00,3465.10,600.66,606.54,59.91,0000 0000 0000 0000 000000
2017-10-03 07:48:04,0.00,0.26,0.00,19.43,23.00,26.27,14.15,46.63,1021.14,2048.02,3398.97,3077.99,3465.04,599.92,605.91,59.96,0000 0000 0000 0000 000000
2017-10-03 07:53:05,-0.00,0.26,0.00,19.36,23.01,26.25,14.12,46.66,1021.24,2048.05,3398.98,3077.97,3465.02,599.67,605.85,60.01,0000 0000 0000 0000 000000
2017-10-03 07:58:07,0.00,0.26,0.00,19.42,23.01,26.28,14.17,46.67,1021.17,2048.04,3398.89,3077.98,3465.02,600.24,606.32,60.06,0000 0000 0000 0000 000000
2017-10-03 08:03:08,0.00,0.03,0.00,19.37,23.02,26.30,12.37,39.66,1021.13,2048.89,3522.73,3125.91,3581.03,529.26,534.53,0.00,0000 0000 0000 0000 000000
2017-10-03 08:08:09,0.00,0.00,0.00,19.39,23.02,26.28,14.16,45.31,1021.12,2048.98,3533.36,3130.64,3593.87,600.22,606.34,0.05,0000 0000 0000 0000 000000
2017-10-03 08:13:11,0.00,0.00,0.00,19.37,23.02,26.29,14.12,45.35,1021.12,2048.98,3532.50,3130.05,3593.14,599.88,605.97,0.10,0000 0000 0000 0000 000000
2017-10-03 08:18:12,0.00,0.00,0.00,19.40,23.02,26.31,14.22,45.37,1021.09,2048.98,3532.01,3130.02,3593.00,600.13,606.16,0.15,0000 0000 0000 0000 000000
2017-10-03 08:23:13,0.00,0.00,0.00,19.38,23.02,26.31,14.16,45.40,1021.10,2048.97,3531.84,3130.00,3592.98,599.86,605.91,0.20,0000 0000 0000 0000 000000
2017-10-03 08:28:15,0.01,0.00,0.00,19.35,23.02,26.28,14.10,45.48,1021.06,2048.98,3531.13,3130.00,3592.72,599.94,606.12,0.26,0000 0000 0000 0000 000000
2017-10-03 08:33:16,0.00,0.00,0.00,19.41,23.02,26.28,14.14,45.48,1021.04,2048.99,3531.01,3130.00,3592.26,599.87,605.85,0.31,0000 0000 0000 0000 000000
2017-10-03 08:38:17,0.00,0.00,0.00,19.37,23.02,26.23,14.15,45.42,1021.04,2048.98,3530.99,3130.00,3592.04,599.52,605.61,0.36,0000 0000 0000 0000 000000
2017-10-03 08:43:19,0.00,0.00,0.00,19.41,23.01,26.27,14.12,45.51,1021.04,2048.98,3530.83,3129.99,3592.00,599.77,605.74,0.41,0000 0000 0000 0000 000000
2017-10-03 08:48:20,0.01,0.00,0.00,19.37,23.01,26.28,14.16,45.56,1021.04,2048.99,3530.33,3129.98,3591.99,599.65,605.71,0.46,0000 0000 0000 0000 000000
2017-10-03 08:53:21,0.00,0.00,0.00,19.37,23.00,26.30,14.13,45.54,1021.04,2048.98,3530.04,3129.96,3591.96,599.87,605.92,0.51,0000 0000 0000 0000 000000
2017-10-03 08:58:22,0.00,0.00,0.00,19.37,23.00,26.30,14.19,45.52,1021.04,2048.98,3530.00,3129.90,3591.83,599.90,605.97,0.56,0000 0000 0000 0000 000000
2017-10-03 09:03:24,0.02,0.00,0.00,19.38,23.00,26.26,14.13,45.47,1021.03,2048.98,3529.99,3129.53,3591.24,599.67,605.68,0.61,0000 0000 0000 0000 000000
2017-10-03 09:08:25,0.01,0.00,0.00,19.39,23.00,26.27,14.19,45.52,1021.03,2048.99,3529.95,3129.23,3591.02,600.01,605.94,0.66,0000 0000 0000 0000 000000
2017-10-03 09:13:26,0.01,0.00,0.00,19.33,22.99,26.28,14.17,45.42,1021.02,2048.98,3529.56,3129.06,3591.00,600.15,606.28,0.71,0000 0000 0000 0000 000000
2017-10-03 09:18:27,0.00,0.00,0.00,19.37,22.99,26.31,14.17,45.51,1021.02,2048.99,3529.08,3129.04,3591.00,600.08,606.11,0.76,0000 0000 0000 0000 000000
2017-10-03 09:23:29,0.00,0.00,0.00,19.32,22.99,26.28,14.12,45.42,1021.03,2048.98,3529.02,3129.03,3590.99,600.24,606.46,0.81,0000 0000 0000 0000 000000
2017-10-03 09:28:30,0.00,0.00,0.00,19.34,22.99,26.24,14.22,45.37,1021.04,2048.99,3529.00,3129.01,3590.98,599.98,606.09,0.86,0000 0000 0000 0000 000000
2017-10-03 09:33:31,0.00,0.00,0.00,19.32,22.99,26.23,14.15,45.44,1021.04,2048.99,3529.00,3129.01,3590.95,600.11,606.18,0.91,0000 0000 0000 0000 000000
2017-10-03 09:38:32,0.00,0.00,0.00,19.32,22.99,26.26,14.25,45.36,1021.02,2048.99,3528.99,3129.01,3590.84,600.27,606.46,0.96,0000 0000 0000 0000 000000
2017-10-03 09:43:34,0.01,0.00,0.00,19.35,22.99,26.26,14.09,45.40,1021.02,2048.99,3528.95,3129.00,3590.33,599.83,605.93,1.01,0000 0000 0000 0000 000000
2017-10-03 09:48:35,0.01,0.00,0.00,19.30,22.99,26.27,14.13,45.42,1021.01,2048.99,3528.72,3129.00,3590.08,600.11,606.33,1.06,0000 0000 0000 0000 000000
2017-10-03 09:53:37,0.00,0.01,0.00,19.34,22.99,26.26,14.14,45.42,1021.01,2048.99,3528.17,3128.99,3590.03,599.81,606.03,1.11,0000 0000 0000 0000 000000
2017-10-03 09:58:38,-0.00,0.01,0.00,19.32,22.98,26.25,14.16,45.48,1021.01,2048.99,3528.07,3128.99,3590.01,600.19,606.23,1.16,0000 0000 0000 0000 000000
2017-10-03 10:03:39,0.00,0.01,0.00,19.37,22.97,26.23,14.12,45.44,1021.01,2048.99,3528.02,3128.99,3590.00,599.87,605.87,1.21,0000 0000 0000 0000 000000
2017-10-03 10:08:41,0.00,0.01,0.00,19.29,22.97,26.23,14.16,45.50,1021.01,2048.99,3528.00,3128.98,3589.99,599.90,606.08,1.26,0000 0000 0000 0000 000000
2017-10-03 10:13:42,0.00,0.01,0.00,19.29,22.97,26.21,14.20,45.45,1021.01,2048.99,3528.00,3128.97,3589.99,600.04,606.22,1.31,0000 0000 0000 0000 000000
2017-10-03 10:18:43,0.00,0.01,0.00,19.35,22.97,26.22,14.04,45.52,1021.01,2048.99,3527.99,3128.96,3589.97,599.86,605.94,1.36,0000 0000 0000 0000 000000
2017-10-03 10:23:44,0.00,0.01,0.00,19.31,22.97,26.24,14.21,45.46,1021.01,2048.99,3527.98,3128.96,3589.95,600.11,606.28,1.41,0000 0000 0000 0000 000000
2017-10-03 10:28:45,0.01,0.01,0.00,19.30,22.97,26.25,14.25,45.58,1020.99,2048.99,3527.88,3128.93,3589.75,600.38,606.59,1.46,0000 0000 0000 0000 000000
2017-10-03 10:33:46,0.01,0.01,0.00,19.25,22.96,26.27,14.22,45.51,1020.90,2048.99,3527.65,3128.86,3589.36,600.22,606.39,1.51,0000 0000 0000 0000 000000
2017-10-03 10:38:47,0.00,0.01,0.00,19.29,22.95,26.23,14.16,45.38,1020.94,2048.99,3527.60,3128.94,3589.29,600.22,606.32,1.56,0000 0000 0000 0000 000000
2017-10-03 10:43:49,0.01,0.01,0.00,19.28,22.95,26.24,14.09,45.34,1020.96,2048.99,3527.34,3128.89,3589.09,599.85,606.06,1.61,0000 0000 0000 0000 000000
2017-10-03 10:48:50,0.00,0.01,0.00,19.30,22.95,26.23,14.14,45.38,1020.96,2048.99,3527.13,3128.78,3589.02,599.84,606.10,1.66,0000 0000 0000 0000 000000
2017-10-03 10:53:51,0.01,0.01,0.00,19.22,22.94,26.22,14.11,45.38,1020.91,2048.99,3527.08,3128.66,3589.00,599.72,605.99,1.71,0000 0000 0000 0000 000000
2017-10-03 10:58:52,-0.00,0.01,0.00,19.27,22.94,26.21,14.20,45.48,1020.85,2048.98,3527.04,3128.70,3589.00,599.91,606.16,1.76,0000 0000 0000 0000 000000
2017-10-03 11:03:54,0.00,0.01,0.00,19.24,22.94,26.21,14.26,45.52,1020.77,2048.97,3527.00,3128.52,3588.99,600.26,606.34,1.81,0000 0000 0000 0000 000000
2017-10-03 11:08:55,0.01,0.01,0.00,19.26,22.94,26.20,14.11,45.38,1020.74,2048.99,3527.00,3128.29,3588.99,599.76,605.82,1.86,0000 0000 0000 0000 000000
2017-10-03 11:13:56,0.00,0.01,0.00,19.25,22.92,26.19,14.10,45.40,1020.68,2048.99,3526.99,3128.16,3588.99,599.94,606.05,1.91,0000 0000 0000 0000 000000
2017-10-03 11:18:57,-0.00,0.01,0.00,19.20,22.92,26.20,14.16,45.41,1020.66,2048.97,3526.99,3128.16,3588.82,599.80,605.94,1.96,0000 0000 0000 0000 000000
2017-10-03 11:23:59,0.00,0.01,0.00,19.23,22.92,26.21,14.18,45.41,1020.60,2048.98,3526.95,3128.06,3588.85,600.04,606.18,2.01,0000 0000 0000 0000 000000
2017-10-03 11:29:00,-0.00,0.01,0.00,19.19,22.91,26.19,14.15,45.56,1020.56,2048.98,3526.96,3128.08,3588.75,599.88,605.92,2.06,0000 0000 0000 0000 000000
2017-10-03 11:34:01,0.01,0.01,0.00,19.24,22.90,26.16,14.09,45.42,1020.55,2048.98,3526.92,3128.05,3588.75,599.76,605.80,2.11,0000 0000 0000 0000 000000
2017-10-03 11:39:02,0.01,0.01,0.00,19.17,22.89,26.15,14.13,45.48,1020.54,2048.98,3526.85,3128.05,3588.22,600.12,606.36,2.16,0000 0000 0000 0000 000000
2017-10-03 11:44:04,0.00,0.01,0.00,19.23,22.89,26.16,14.11,45.44,1020.53,2048.98,3526.71,3128.05,3588.04,600.01,605.97,2.21,0000 0000 0000 0000 000000
2017-10-03 11:49:05,0.01,0.01,0.00,19.18,22.87,26.18,14.22,45.36,1020.53,2048.97,3526.16,3128.02,3588.02,600.30,606.46,2.26,0000 0000 0000 0000 000000
2017-10-03 11:54:06,-0.00,0.01,0.00,19.19,22.87,26.13,14.13,45.30,1020.53,2048.99,3526.03,3128.03,3588.04,600.12,606.25,2.31,0000 0000 0000 0000 000000
2017-10-03 11:59:07,0.00,0.01,0.00,19.16,22.87,26.12,14.15,45.49,1020.53,2048.99,3526.00,3128.01,3588.05,600.06,606.19,2.36,0000 0000 0000 0000 000000
2017-10-03 12:04:08,0.00,0.01,0.00,19.15,22.85,26.13,14.17,45.45,1020.53,2048.98,3526.00,3128.00,3588.01,600.09,606.25,2.41,0000 0000 0000 0000 000000
2017-10-03 12:09:09,0.00,0.01,0.00,19.15,22.84,26.14,14.18,45.42,1020.52,2048.99,3526.00,3128.02,3588.00,600.01,606.32,2.46,0000 0000 0000 0000 000000
2017-10-03 12:14:11,0.00,0.01,0.00,19.12,22.84,26.12,14.18,45.47,1020.52,2048.99,3526.00,3128.02,3588.00,600.26,606.59,2.51,0000 0000 0000 0000 000000
2017-10-03 12:19:12,0.00,0.01,0.00,19.16,22.82,26.12,14.11,45.51,1020.52,2048.99,3526.00,3128.02,3588.00,599.74,605.95,2.56,0000 0000 0000 0000 000000
2017-10-03 12:24:14,0.00,0.01,0.00,19.12,22.82,26.11,14.22,45.46,1020.53,2048.99,3525.98,3128.02,3588.00,599.69,606.02,2.62,0000 0000 0000 0000 000000
2017-10-03 12:29:15,0.00,0.01,0.00,19.12,22.81,26.10,14.19,45.36,1020.52,2048.99,3525.98,3128.02,3588.00,600.10,606.30,2.67,0000 0000 0000 0000 000000
2017-10-03 12:34:16,0.00,0.01,0.00,19.07,22.79,26.09,14.19,45.43,1020.52,2048.99,3525.96,3128.02,3588.00,600.06,606.54,2.72,0000 0000 0000 0000 000000
2017-10-03 12:39:17,0.00,0.01,0.00,19.12,22.79,26.08,14.16,45.60,1020.52,2048.99,3525.90,3128.01,3588.00,599.91,606.23,2.77,0000 0000 0000 0000 000000
2017-10-03 12:44:19,0.00,0.01,0.00,19.07,22.78,26.06,14.21,45.51,1020.52,2048.99,3525.87,3128.01,3588.00,600.17,606.59,2.82,0000 0000 0000 0000 000000
2017-10-03 12:49:20,0.00,0.01,0.00,19.08,22.77,26.06,14.11,45.53,1020.52,2048.99,3525.67,3128.02,3587.99,599.36,605.66,2.87,0000 0000 0000 0000 000000
2017-10-03 12:54:22,0.00,0.01,0.00,19.06,22.77,26.04,14.16,45.48,1020.52,2049.00,3525.52,3128.01,3587.99,599.57,606.04,2.92,0000 0000 0000 0000 000000